sat.trackr.live / text

‹ back to catalog

STARLINK-11210 [DTC]

NORAD 60116 · 2024-118D

PAYLOAD ACTIVE UNKNOWN

§ Identity

Operator
Country
US
Launch date
2024-06-24
Launch site
AFWTR
Launch vehicle
Mass (kg)
RCS (m²)

Purposes: comms

External: N2YO · Heavens-Above · Gunter

§ Orbital elements

Epoch: 2026-09-21T11:42:04.529952Z

Period
91.74 min
Inclination
53.1600°
Eccentricity
0.0001137
Mean motion
15.69702719 rev/d
Perigee alt
359.0 km
Apogee alt
360.5 km
Semi-major
6,737.9 km
B*
-4.3776e-6
RAAN
336.2010°
Arg perigee
72.1153°
Mean anomaly
287.9989°
Rev number
12,874

§ Raw data

STARLINK-11210 [DTC]1 60116U 24118D   26264.48755243 -.00001119  00000+0 -43776-5 0  99932 60116  53.1600 336.2010 0001137  72.1153 287.9989 15.69702719128748

JSON: /api/v1/satellites/60116 · /tle

For live sub-satellite position, see the globe view (requires WebGL).

§ Visibility from observer

Set your observer location to see the next 7 days of passes ≥ 10°. The values pass through the URL so the page stays shareable.

No JS? Fill the form by hand. The geolocation button needs JavaScript.